Regional Weather Roundup
Issued by NWS

Home | Current Version | Previous Version | Graphics & Text | Print | Product List | Glossary On
Versions: 1 2 3 4 5 6 7 8 9 10 11 12 13 14 15 16 17 18 19 20 21 22 23 24 25 26 27 28 29 30 31 32 33 34 35 36 37 38 39 40 41 42 43 44 45 46 47 48 49 50
000
ASUS43 KLMK 121610
RWRKY
KENTUCKY REGIONAL WEATHER ROUNDUP
NATIONAL WEATHER SERVICE LOUISVILLE KY
1100 AM EST FRI FEB 12 2016

NOTE "FAIR" INDICATES FEW OR NO CLOUDS BELOW 12,000 FEET
WITH NO SIGNIFICANT WEATHER AND/OR OBSTRUCTIONS TO VISIBILITY.

KYZ001>023-026-027-061>063-070>075-121700-
WESTERN AND SOUTH CENTRAL KENTUCKY

CITY           SKY/WX    TMP DP  RH WIND       PRES   REMARKS
PADUCAH        CLOUDY    31  24  75 N6        30.25R WCI  25
HENDERSON      CLOUDY    27  21  80 NW3       30.25R
OWENSBORO      CLOUDY    26  24  92 NW7       30.25S WCI  18
HOPKINSVILLE   CLOUDY    31  26  83 N6        30.21S WCI  25
BOWLING GREEN  CLOUDY    29  26  89 N5        30.23R WCI  24
GLASGOW        CLOUDY    28  26  91 NW3       30.20R
$$

KYZ024-025-028>034-038-045-046-053-121700-
NORTH CENTRAL KENTUCKY

CITY           SKY/WX    TMP DP  RH WIND       PRES   REMARKS
LOUISVILLE/SDF FLURRIES  29  20  69 W7        30.20F WCI  22
LOUISVILLE/LOU CLOUDY    28  19  69 W6        30.21S WCI  22
FORT KNOX      CLOUDY    27  20  77 NW3       30.18S
$$

KYZ035>037-039>044-047>052-055>060-089>105-121700-
NORTHEAST KENTUCKY

CITY           SKY/WX    TMP DP  RH WIND       PRES   REMARKS
LEXINGTON      CLOUDY    28  18  66 W10       30.16S WCI  19
COVINGTON      LGT SNOW  23  17  78 SW8       30.15F VSB 3/4 WCI  14
FRANKFORT      CLOUDY    29  16  58 VRB7      30.16F WCI  22
$$

KYZ054-064>069-076>088-106>120-121700-
SOUTHEAST KENTUCKY

CITY           SKY/WX    TMP DP  RH WIND       PRES   REMARKS
JACKSON        CLOUDY    25  13  60 CALM      30.12S
LONDON         LGT SNOW  26  22  84 CALM      30.14S FOG
SOMERSET       LGT SNOW  27  25  93 CALM      30.19S VSB 1
MIDDLESBORO    LGT SNOW  28  28  96 CALM      30.14S VSB 1
MONTICELLO     LGT SNOW  29  25  85 W3        30.19S FOG
$$




USA.gov is the U.S. government's official web portal to all federal, state and local government web resources and services.